World > North America > United States > South Dakota > Harrisburg   City of Harrisburg, South Dakota

Harrisburg, SD Hourly Weather Updates

Feedback E-mail the Weather

Quick Clicks

Harrisburg, SD Weather Maps

°F °C°F °C
Harrisburg Weather Map
UTC Time: 5/25/2024, 20:36
Your Time:

Harrisburg, SD Regional Weather

Expires:202405252100;;857578
ASUS43 KFSD 252010
RWRFSD

WEATHER ROUNDUP FOR SE SOUTH DAKOTA/SW MINNESOTA/NW IOWA
NATIONAL WEATHER SERVICE SIOUX FALLS SD
300 PM CDT SAT MAY 25 2024

NOTE: "FAIR" INDICATES FEW OR NO CLOUDS BELOW 12,000 FEET WITH NO
SIGNIFICANT WEATHER AND OR OBSTRUCTIONS TO VISIBILITY.



SDZ038>040-050-052>070-252100-
SOUTHEAST SOUTH DAKOTA
  
CITY           SKY/WX    TMP DP  RH WIND       PRES   REMARKS
BROOKINGS      CLOUDY    63  54  72 S9        29.71F TC  17           
CHAMBERLAIN    CLOUDY    64  53  68 S7        29.67R TC  18           
HURON          CLOUDY    63  54  72 CALM      29.67F TC  17           
MADISON          N/A     64  61  88 S17G25    29.72R TC  18           
MITCHELL       CLOUDY    68  53  58 S15G22    29.68S TC  20           
SIOUX FALLS    PTSUNNY   70  55  59 S12       29.73F TC  21           
WINNER         PTSUNNY   71  50  47 S6        29.64F TC  22           
YANKTON        PTSUNNY   72  53  51 SE9       29.69F TC  22           
$$


SKY/WX - Weather  TMP - Temperature  DP - Dew Point  RH - Humidity
WIND - Wind Direction/Speed PRES - Barometric Pressure VSB - Visibility
WCI - Wind Chill Index E13G22 Wind - East Wind 13 mph/Gusts of 22 mph

Trending Headlines

Trending Entertainment Headlines

Harrisburg Radar Loop

Use the map search tool if you want to place a location marker on the radar map...

Harrisburg Quick Facts

National Two Day Weather Forecast


E-mail the Harrisburg Weather Forecast

Voice your opinion or tell us about page issues...